User: anonymous   Login
Location: Oshawa
(43.9000°N, 78.8670°W)
Time: 07:49:17
(UTC-04:00)
Language:

Iridium 46 - Orbit

View from above orbital plane
View from above orbital plane
View from above satellite
View from above satellite

Ground track
Ground track

The orbit data is extracted from the following two-line orbital elements,

1 24905U 97043C   15146.28162985  .00000215  00000-0  69762-4 0  9993
2 24905 086.3997 210.6257 0002267 092.9912 267.1543 14.34218081929916
Epoch (UTC): 26 May 2015 06:45:32
Eccentricity: 0.0002267
inclination: 86.3997°
perigee height: 776 km
apogee height: 779 km
right ascension of ascending node: 210.6257°
argument of perigee: 92.9912°
revolutions per day: 14.34218081
mean anomaly at epoch: 267.1543°
orbit number at epoch: 92991

The dashed part of the orbit path shows where the satellite is in the earth's shadow,  

DLR